Weather History for Findlay, OH

Change the Weather History Date:

Saturday, November 24, 2012

  Actual Average Record
Temperature  
Mean Temperature 29 °F -  
Max Temperature 30 °F 42 °F 66 °F (2001)
Min Temperature 28 °F 29 °F 1 °F (1950)
Degree Days  
Heating Degree Days 36    
Moisture  
Dew Point 24 °F    
Average Humidity 79    
Maximum Humidity 88    
Minimum Humidity 69    
Precipitation  
Precipitation 0.00 in - - ()
Sea Level Pressure  
Sea Level Pressure 30.12 in    
Wind  
Wind Speed 15 mph (West)    
Max Wind Speed 20 mph    
Max Gust Speed 26 mph    
Visibility 9 miles    
Events Snow    
Averages and records for this station are not official NWS values.
T = Trace of Precipitation, MM = Missing Value Source: NWS Daily Summary

Daily Weather History Graph

Daily Weather History Graph

Search for Another Location

Airport:

Trip Planner

Search our weather history database for the weather conditions in past years. The results will help you decide how hot, cold, wet, or windy it might be!

Date:

Astronomy

Nov. 24, 2012 Rise Set
Actual Time 7:33 AM EST 5:09 PM EST
Civil Twilight 7:03 AM EST 5:39 PM EST
Nautical Twilight 6:29 AM EST 6:13 PM EST
Astronomical Twilight 5:56 AM EST 6:46 PM EST
Moon 2:55 PM EST (11/24) 3:47 AM EST (11/24)
Length of Visible Light 10h 36m
Length of Day
9h 36m
Waxing Gibbous, 87% of the Moon is Illuminated
Nov 24
Waxing Gibbous
Nov 28
Full
Dec 6
Last Quarter
Dec 13
New
Dec 20
First Quarter

Hourly Weather History & Observations

Time (EST) Temp. Windchill Dew Point Humidity Pressure Visibility Wind Dir Wind Speed Gust Speed Precip Events Conditions
12:53 AM 30.0 °F 17.5 °F 21.9 °F 72% 30.08 in 10.0 mi West 19.6 mph - N/A   Overcast
1:53 AM 30.0 °F 17.5 °F 21.9 °F 72% 30.08 in 10.0 mi West 19.6 mph 26.5 mph N/A   Overcast
2:53 AM 30.0 °F 17.5 °F 21.9 °F 72% 30.08 in 10.0 mi West 19.6 mph 25.3 mph N/A   Overcast
3:53 AM 30.0 °F 19.1 °F 23.0 °F 75% 30.09 in 10.0 mi West 15.0 mph 21.9 mph N/A   Overcast
4:53 AM 30.0 °F 19.5 °F 23.0 °F 75% 30.09 in 10.0 mi West 13.8 mph 20.7 mph N/A   Overcast
5:53 AM 30.0 °F 20.0 °F 24.1 °F 79% 30.10 in 10.0 mi West 12.7 mph - N/A   Overcast
6:13 AM 28.4 °F 17.0 °F 24.8 °F 86% 30.09 in 10.0 mi West 15.0 mph - 0.00 in Snow Light Snow
6:34 AM 28.4 °F 18.0 °F 24.8 °F 86% 30.09 in 10.0 mi West 12.7 mph - 0.00 in   Overcast
7:51 AM 28.4 °F 18.0 °F 24.8 °F 86% 30.11 in 10.0 mi West 12.7 mph - N/A   Overcast
7:53 AM 28.9 °F 18.6 °F 24.1 °F 82% 30.13 in 10.0 mi West 12.7 mph - N/A   Overcast
8:00 AM 28.4 °F 18.0 °F 24.8 °F 86% 30.11 in 10.0 mi West 12.7 mph - N/A   Overcast
8:08 AM 28.4 °F 19.1 °F 24.8 °F 86% 30.11 in 10.0 mi West 10.4 mph - N/A   Overcast
8:42 AM 30.2 °F 21.9 °F 24.8 °F 80% 30.12 in 9.0 mi West 9.2 mph - 0.00 in Snow Light Snow
8:53 AM 30.0 °F 21.1 °F 24.1 °F 79% 30.14 in 4.0 mi West 10.4 mph - 0.00 in Snow Light Snow
9:02 AM 30.2 °F 21.9 °F 24.8 °F 80% 30.12 in 6.0 mi West 9.2 mph - 0.00 in Snow Light Snow
9:53 AM 28.9 °F 18.6 °F 25.0 °F 85% 30.16 in 5.0 mi West 12.7 mph - 0.00 in Snow Light Snow
10:53 AM 30.0 °F 20.5 °F 27.0 °F 88% 30.16 in 3.0 mi West 11.5 mph - 0.00 in Snow Light Snow
11:14 AM 30.2 °F 19.3 °F 26.6 °F 86% 30.14 in 5.0 mi West 15.0 mph - 0.00 in Snow Light Snow
11:53 AM 30.9 °F 21.2 °F 26.1 °F 82% 30.15 in 10.0 mi West 12.7 mph - 0.00 in   Overcast
12:53 PM 30.9 °F 21.2 °F 26.1 °F 82% 30.14 in 10.0 mi West 12.7 mph - N/A   Overcast
1:53 PM 30.9 °F 20.7 °F 26.1 °F 82% 30.13 in 10.0 mi West 13.8 mph - 0.00 in   Overcast
2:53 PM 30.9 °F 19.8 °F 24.1 °F 76% 30.12 in 10.0 mi WSW 16.1 mph - N/A   Overcast
3:13 PM 30.2 °F 18.9 °F 24.8 °F 80% 30.11 in 10.0 mi West 16.1 mph - N/A   Overcast
3:53 PM 30.9 °F 19.4 °F 24.1 °F 76% 30.13 in 10.0 mi West 17.3 mph - N/A   Overcast
4:53 PM 30.0 °F 19.1 °F 24.1 °F 79% 30.14 in 10.0 mi West 15.0 mph - N/A   Overcast
5:53 PM 30.0 °F 19.5 °F 23.0 °F 75% 30.14 in 10.0 mi West 13.8 mph - N/A   Overcast
6:53 PM 30.0 °F 20.5 °F 23.0 °F 75% 30.14 in 10.0 mi West 11.5 mph - N/A   Overcast
7:53 PM 28.9 °F 19.8 °F 23.0 °F 78% 30.14 in 10.0 mi WSW 10.4 mph - N/A   Overcast
8:53 PM 28.9 °F 20.4 °F 23.0 °F 78% 30.12 in 10.0 mi West 9.2 mph - N/A   Overcast
9:53 PM 28.9 °F 20.4 °F 21.9 °F 75% 30.11 in 10.0 mi WSW 9.2 mph - N/A   Overcast
10:10 PM 28.4 °F 20.4 °F 21.2 °F 74% 30.08 in 10.0 mi WSW 8.1 mph - N/A   Overcast
10:53 PM 28.9 °F 19.2 °F 19.9 °F 69% 30.09 in 10.0 mi WSW 11.5 mph - N/A   Overcast
11:53 PM 28.9 °F 20.4 °F 19.9 °F 69% 30.09 in 10.0 mi WSW 9.2 mph - N/A   Overcast